Forside
METAR-TAF:

METAR-TAF

Lufthavne :

Eagle River Union Airport

Eagle River, Wisconsin, USA

Breddekreds: 45-55-54N, længdekreds: 089-16-09W, højde: 501 m

Aktuelle vejr

Denne rapport blev lavet for 31 minutter siden, kl. 16:55 UTC
Vind 7 kt fra vest, varierende mellem vestsydvest og vestnordvest
Temperatur 23°C
Fugtighed 53%
Tryk 1019 hPa
Sigt: 11.3 km
skyfri

METAR: KEGV 031655Z AUTO 27007KT 240V300 7SM CLR 23/13 A3008 RMK AO2 T02330128

Tid: 12:26 (17:26 UTC)


TAF: fraværende

Vejrobservationer og prognoser fra mere end 4000 lufthavne (METAR og TAF).

De gule og røde prikker repræsenterer de meteorologiske stationer.

Flyt musen over at se navnet på stationen.

Så klik over at se vejr observationer og prognoser.

At skifte det kort: Klik på de grønne knapper med et sort kors for at zoome ind; på den grønne knap med en bindestreg for at zoome ud; eller på de grønne pile for tilstødende kort.


METAR-TAF: